Terminal Aerodrome Forecast
Issued by NWS

Home | Current Version | Previous Version | Graphics & Text | Print | Product List | Glossary On
Versions: 1 2 3 4 5 6 7 8 9 10 11 12 13 14 15 16 17 18 19 20 21 22 23 24 25 26 27
000
FTUS43 KLOT 020314 AAB
TAFMDW
TAF AMD
KMDW 020314Z 0203/0224 02012KT 6SM -RA BR OVC006
     FM020600 01011KT P6SM OVC008
     FM020900 01010KT P6SM OVC012
     FM021200 03011KT P6SM SCT035 BKN050=

USA.gov is the U.S. government's official web portal to all federal, state and local government web resources and services.